Location: Blum
(32.1427°N, 97.3972°W)
Time: 11:34:56
(UTC+00:00)

Daily predictions for brighter satellites

Satellite Brightness Start Highest point End
(mag) Time Altitude Azimuth Time Altitude Azimuth Time Altitude Azimuth
ASTRO E2 3.5 12:02:07 22° WSW 12:03:47 34° SSW 12:07:08 10° SE
ERS-2 2.0 12:01:35 10° NNE 12:04:30 62° ESE 12:07:23 10° S
Cosmos 1634 Rocket 4.2 12:00:53 10° S 12:07:01 75° E 12:13:13 10° N
SKYMED 2 3.5 12:02:49 10° S 12:07:06 65° W 12:11:25 10° NNW
Nadezhda 4 Rocket 4.0 12:03:14 10° NNW 12:09:14 59° W 12:15:18 10° S
Milstar 3 Cent rocket 3.3 12:05:31 16° W 12:09:38 48° S 12:18:23 10° ESE
Cosmos 1624 Rocket 3.9 12:04:45 10° NNW 12:09:55 72° WSW 12:15:06 10° S
Cosmos 1932 4.5 12:08:44 10° NNW 12:15:04 86° ENE 12:21:14 10° SSE
COSMOS 2428 2.7 12:09:53 10° SSW 12:15:31 67° WNW 12:21:12 10° NNE
Cosmos 2333 Rocket 3.4 12:13:29 15° W 12:16:07 20° WNW 12:20:15 10° NNW
JB-3 4.3 12:13:20 10° S 12:17:23 74° WSW 12:21:27 10° NNW
NOSS 0 Rocket 4.2 12:16:05 10° SSW 12:22:17 76° ESE 12:28:32 10° NNE
SMAP 4.2 12:20:40 10° NNE 12:25:10 48° E 12:29:38 10° S
Lacrosse 5 rocket 2.2 12:26:25 10° WSW 12:30:09 31° NW 12:34:03 10° NNE
SL-08 R/B 3.6 12:26:31 10° S 12:31:05 47° W 12:35:36 10° NNW
Cosmos 1933 3.2 12:27:17 10° NNW 12:31:12 65° W 12:35:05 10° S
SJ-7 4.4 12:27:19 10° N 12:31:25 84° WNW 12:35:30 10° SSW
Cosmos 1844 Rocket 3.9 12:29:02 10° NW 12:33:16 23° W 12:37:33 10° SSW
Cosmos 1544 2.8 12:30:32 10° S 12:33:42 78° E 12:36:54 10° N
Cosmos 1953 Rocket 3.5 12:30:48 10° SSW 12:35:11 66° W 12:39:38 10° N
Cosmos 2279 Rocket 4.2 12:29:05 10° S 12:35:20 83° E 12:41:36 10° N
ATLAS 3B R/B 4.5 12:34:53 10° NW 12:36:59 11° NW 12:39:08 10° NNW
COSMOS 2455 3.3 12:31:28 10° NW 12:37:05 42° WSW 12:42:40 10° S
H-2A R/B 3.5 12:35:29 10° NW 12:37:55 14° WNW 12:40:21 10° W
Meteor 2-3 Rocket 4.3 12:32:56 10° SW 12:37:56 34° WNW 12:42:58 10° NNW
SJ-11-01 4.3 12:33:22 10° N 12:37:58 58° WNW 12:42:32 10° SSW
Cosmos-2242 4.3 12:35:10 10° NW 12:38:14 20° W 12:41:18 10° SW
Cosmos 1515 4.1 12:35:15 10° N 12:38:49 62° E 12:42:22 10° SSE
CZ-2D R/B 3.6 12:40:03 10° N 12:43:27 38° WNW 12:46:49 10° SW
USA 281 4.5 12:41:04 10° NNW 12:45:00 17° NW 12:48:56 10° W
Cosmos 2278 Rocket 3.8 12:41:20 10° N 12:46:24 33° ENE 12:51:26 10° SE
SeaSat 1 4.3 12:42:41 10° ESE 12:46:46 27° ENE 12:50:51 10° N
Cosmos 2237 Rocket 2.4 12:41:59 10° SSW 12:47:39 83° ESE 12:53:20 10° NNE
Cosmos 1862 3.8 12:44:14 10° SSW 12:47:46 36° W 12:51:20 10° NNW
USA 215 4.2 12:43:03 10° NNE 12:48:14 26° NNW 12:53:23 10° W
Cosmos 2221 2.4 12:44:13 10° N 12:48:27 73° W 12:52:40 10° S
Nadezhda 4 Rocket 4.3 23:41:47 10° SSE 23:47:37 45° E 23:53:24 10° NNE
Cosmos 2263 Rocket 2.5 23:43:54 10° SSW 23:49:25 71° WNW 23:54:59 10° NNE
Cosmos 1844 Rocket 4.1 23:47:24 10° SE 23:51:04 18° E 23:54:45 10° ENE
ERS-2 3.6 23:48:44 10° SSW 23:51:26 34° W 23:54:09 10° NNW
Cosmos 1544 2.7 23:49:48 10° N 23:53:02 82° E 23:56:16 10° S
Tiangong -1.6 23:51:07 10° NW 23:54:07 40° NNE 23:57:07 10° E
Cosmos 1782 4.4 23:52:41 10° SE 23:55:06 16° E 23:57:31 10° NE
